Terminal Aerodrome Forecast
Issued by NWS

Home | Current Version | Previous Version | Text Only | Print | Product List | Glossary On
Versions: 1 2 3 4 5 6 7 8 9 10 11 12 13 14 15 16 17 18 19 20 21 22 23 24 25 26 27 28 29 30 31 32 33 34 35 36 37 38 39 40 41 42 43 44 45 46 47 48 49 50
661
FTUS45 KBOU 241720
TAFAPA
TAF
KAPA 241720Z 2418/2518 VRB05KT P6SM FEW130 SCT220
     FM241900 03006KT P6SM FEW090 SCT140
     FM242200 17015G25KT P6SM VCTS SCT080CB BKN140
     FM250200 18015KT P6SM SCT080 BKN140
     FM250600 22010KT P6SM SCT100 BKN140
     FM251500 25008KT P6SM SCT090 BKN140=

USA.gov is the U.S. government's official web portal to all federal, state and local government web resources and services.